Home > Weather > Albuquerque > Past weeks

Flag for U.S.A. Weather for the Past 2 Weeks in Albuquerque, New Mexico, U.S.A.

Now
32 °F

Clear.


Feels Like: 32 °F
Forecast: 28 / 59 °F
Wind: No wind

Location: Albuquerque International Airport

Current Time: Feb 9, 2016 at 1:44:12 AM

Latest Report: Feb 9, 2016 at 12:52 AM


Visibility: 10 mi

Pressure: 30.35 "Hg (25.12 "Hg at 1510m altitude)

Humidity: 59%

Dew point: 19 °F

Location of AlbuquerqueLocation

Historic Weather in Albuquerque — Graph

°F

Albuquerque Temperature Yesterday

Maximum temperature yesterday: 59 °F (at 2:52 PM)
Minimum temperature yesterday: 31 °F (at 3:52 AM)
Average temperature yesterday: 43 °F

High & Low Weather Summary for the Past Weeks

 TemperatureHumidityPressure
High65 °F (Jan 30, 2:52 PM)92% (Feb 1, 6:57 AM)30.56 "Hg (Feb 1, 6:57 AM)
Low14 °F (Feb 3, 6:52 AM)13% (Jan 31, 3:52 PM)29.39 "Hg (Feb 1, 5:52 AM)
Average38 °F43%30.15 "Hg
* Reported Jan 24 11:52 PM — Feb 8 11:52 PM, Albuquerque, Weather by CustomWeather, © 2016

Note: Actual official high and low records may vary slightly from our data, if they occured in-between our weather recording intervals... More about our weather records

Advertising

Albuquerque Weather History for the Previous 24 Hours

 ConditionsComfort  
Time TempWeatherWind HumidityBarometerVisibility
11:52 PM
Mon, Feb 8
34 °FClear.3 mph56%30.36 "Hg10 mi
10:52 PM36 °FClear.No wind54%30.37 "Hg10 mi
9:52 PM44 °FClear.7 mph43%30.36 "Hg10 mi
8:52 PM46 °FPassing clouds.7 mph38%30.37 "Hg10 mi
7:52 PM47 °FPassing clouds.8 mph36%30.36 "Hg10 mi
6:52 PM50 °FPassing clouds.8 mph32%30.33 "Hg10 mi
5:52 PM52 °FPassing clouds.14 mph28%30.30 "Hg10 mi
4:52 PM56 °FPassing clouds.14 mph24%30.29 "Hg10 mi
3:52 PM57 °FPassing clouds.16 mph22%30.29 "Hg10 mi
2:52 PM59 °FSunny.10 mph20%30.27 "Hg10 mi
1:52 PM56 °FSunny.5 mph22%30.30 "Hg10 mi
12:52 PM56 °FPassing clouds.8 mph20%30.34 "Hg10 mi
11:52 AM52 °FPassing clouds.15 mph24%30.39 "Hg10 mi
10:52 AM47 °FPassing clouds.8 mph32%30.45 "Hg10 mi
9:52 AM42 °FPassing clouds.5 mph41%30.44 "Hg10 mi
8:52 AM35 °FSunny.6 mph54%30.47 "Hg10 mi
7:52 AM31 °FSunny.8 mph61%30.46 "Hg10 mi
6:52 AM31 °FClear.6 mph61%30.43 "Hg10 mi
5:52 AM33 °FClear.10 mph56%30.41 "Hg10 mi
4:52 AM31 °FClear.5 mph61%30.39 "Hg10 mi
3:52 AM31 °FClear.5 mph61%30.38 "Hg10 mi
2:52 AM37 °FClear.8 mph48%30.34 "Hg10 mi
1:52 AM36 °FClear.6 mph50%30.35 "Hg10 mi
Weather by CustomWeather, © 2016

See weather overviewHow to use our weather pages